Location: Castro Valley
(37.6940°N, 122.0850°W)
Time: 08:01:53
(UTC-07:00)

Amateur Radio Satellites - All Passes

Search period start: 30 July 2016 07:31
Search period end: 31 July 2016 07:31
Location: Castro Valley, 37.6940°N, 122.0850°W

Satellite Date Start Highest point End Downlink Frequencies (MHz)
Time Altitude Azimuth
Cosmos 2491 30 Jul 07:38:08 07:44:53 24° 68° (ENE) 07:51:36 435.465 / 435.565
CUTE-I 30 Jul 07:39:27 07:44:49 85° 282° (WNW) 07:50:07 437.470
HORYU 2 30 Jul 07:39:33 07:41:02 12° 297° (WNW) 07:42:33 437.375
O/OREOS (USA 219) 30 Jul 07:43:55 07:46:40 16° 260° (W) 07:49:25 437.305
NOAA 15 30 Jul 07:48:25 07:53:31 52° 288° (WNW) 07:58:37 137.62
BRITE-PL 30 Jul 07:51:47 07:56:14 33° 289° (WNW) 08:00:57 437.365/2234.400
CINEMA 3 30 Jul 07:59:00 08:02:29 19° 92° (E) 08:05:55 145.822/145.860
SO-50 30 Jul 07:59:52 08:04:44 69° 302° (WNW) 08:09:35 436.795
DOVE 4 30 Jul 08:11:17 08:16:32 87° 98° (E) 08:21:52 437.250
HO-68 30 Jul 08:15:31 08:21:34 28° 96° (E) 08:27:33 435.675
CANX-2 30 Jul 08:17:31 08:20:50 22° 95° (E) 08:24:07 2200.000
STRAND 1 30 Jul 08:26:46 08:31:19 32° 263° (W) 08:35:54 437.568
CUTE 1.7 + AOD 2 30 Jul 08:30:01 08:33:36 27° 96° (E) 08:37:09 437.475
PRISM 30 Jul 08:32:45 08:36:30 37° 72° (ENE) 08:40:15 437.425
GOMX 1 30 Jul 08:36:30 08:40:49 27° 291° (WNW) 08:45:17 467.674
CUBEBUG 2 30 Jul 08:43:22 08:45:53 14° 91° (E) 08:48:22 437.445
NOAA 18 30 Jul 08:45:52 08:50:12 24° 295° (WNW) 08:54:31 137.9125
Cubesat XI-IV 30 Jul 08:58:25 09:01:47 17° 297° (WNW) 09:05:08 437.490
SEEDS 30 Jul 09:02:22 09:06:23 45° 99° (E) 09:10:21 437.485
YUBILEINY 30 Jul 09:02:26 09:10:12 37° 86° (E) 09:18:00 435.215
COMPASS 1 30 Jul 09:07:39 09:11:27 35° 98° (E) 09:15:13 437.405
RS-15 30 Jul 09:16:19 09:26:18 31° 324° (NW) 09:36:44 29.354- 29.394
CUTE-I 30 Jul 09:23:14 09:23:59 10° 301° (WNW) 09:24:44 437.470
AAUSAT CUBESAT 2 30 Jul 09:32:14 09:36:16 55° 99° (E) 09:40:17 437.432
Cosmos 2491 30 Jul 09:33:44 09:42:25 69° 268° (W) 09:51:07 435.465 / 435.565
CINEMA 3 30 Jul 09:35:01 09:39:48 45° 287° (WNW) 09:44:28 145.822/145.860
FUNcube-1 30 Jul 09:38:43 09:42:13 23° 94° (E) 09:45:38 145.935
ZACube-1 30 Jul 09:41:29 09:45:13 26° 95° (E) 09:48:53 437.345
SO-50 30 Jul 09:44:53 09:46:05 11° 321° (NW) 09:47:18 436.795
ANTELSAT 30 Jul 09:45:48 09:49:20 22° 67° (ENE) 09:52:55 437.575/2403.000
UWE-3 30 Jul 09:48:33 09:53:00 51° 99° (E) 09:57:19 435.000/436.395/437.385
DOVE 4 30 Jul 09:51:45 09:53:29 12° 298° (WNW) 09:55:14 437.250
CANX-2 30 Jul 09:53:06 09:56:37 26° 290° (WNW) 10:00:08 2200.000
HO-68 30 Jul 10:02:35 10:09:28 51° 292° (WNW) 10:16:19 435.675
CUTE 1.7 + AOD 2 30 Jul 10:06:02 10:09:17 22° 291° (WNW) 10:12:32 437.475
PRISM 30 Jul 10:09:36 10:11:56 15° 266° (W) 10:14:16 437.425
Oscar 11 30 Jul 10:15:34 10:19:52 67° 102° (ESE) 10:24:07 145.826/435.025
CUBEBUG 2 30 Jul 10:18:16 10:22:48 49° 287° (WNW) 10:27:11 437.445
Cosmos 2504 30 Jul 10:25:07 10:33:18 44° 88° (E) 10:41:27 435.465 / 435.565
TIGRISAT 30 Jul 10:25:13 10:29:44 54° 74° (ENE) 10:34:19 435.000
HUMSAT D 30 Jul 10:25:32 10:28:04 16° 93° (E) 10:30:34 437.325/437.525
M-CUBED/EXP-1 PRIME 30 Jul 10:36:31 10:40:27 26° 100° (E) 10:44:19 437.505
SEEDS 30 Jul 10:39:33 10:41:40 14° 294° (WNW) 10:43:46 437.485
UNISAT 6 30 Jul 10:42:41 10:47:20 89° 77° (ENE) 10:52:04 437.425
COMPASS 1 30 Jul 10:44:03 10:46:43 17° 292° (WNW) 10:49:22 437.405
YUBILEINY 30 Jul 10:58:26 11:06:43 45° 284° (WNW) 11:15:07 435.215
AUBIESAT-1 30 Jul 10:59:10 11:03:29 36° 102° (ESE) 11:07:40 437.475
DELFI C3 30 Jul 10:59:48 11:03:46 84° 280° (W) 11:07:42 145.870
NANOSAT C BR1 30 Jul 11:07:42 11:11:00 22° 69° (ENE) 11:14:19 145.865
AAUSAT CUBESAT 2 30 Jul 11:10:00 11:11:14 11° 295° (WNW) 11:12:30 437.432
DUCHIFAT 1 30 Jul 11:10:11 11:13:28 22° 69° (ENE) 11:16:46 145.980
FUNcube-1 30 Jul 11:14:37 11:18:26 28° 290° (WNW) 11:22:09 145.935
ZACube-1 30 Jul 11:17:45 11:21:24 25° 291° (WNW) 11:24:57 437.345
ANTELSAT 30 Jul 11:21:33 11:25:47 35° 263° (W) 11:30:06 437.575/2403.000
UWE-3 30 Jul 11:26:29 11:28:58 15° 295° (WNW) 11:31:24 435.000/436.395/437.385
QB50P1 30 Jul 11:31:26 11:35:28 44° 73° (ENE) 11:39:32 145.935-145.965
Cosmos 2491 30 Jul 11:36:21 11:37:30 10° 286° (WNW) 11:38:39 435.465 / 435.565
RS-15 30 Jul 11:37:17 11:44:36 17° 359° (N) 11:52:02 29.354- 29.394
POPSAT HIP 1 30 Jul 11:38:09 11:42:16 52° 74° (ENE) 11:46:27 437.405
CUBEBUG 1 30 Jul 11:52:49 11:55:40 17° 93° (E) 11:58:32 437.445
Oscar 11 30 Jul 11:54:49 11:55:23 10° 297° (WNW) 11:55:56 145.826/435.025
AO-85 30 Jul 11:57:24 11:59:56 13° 107° (ESE) 12:02:25 145.980
ESTCUBE 1 30 Jul 11:59:24 12:03:23 31° 97° (E) 12:07:20 437.505/2401.250
QB50P2 30 Jul 11:59:55 12:04:10 79° 257° (WSW) 12:08:28 145.880/145.840
HUMSAT D 30 Jul 11:59:59 12:03:49 36° 288° (WNW) 12:07:35 437.325/437.525
VELOX 1 30 Jul 12:01:11 12:04:12 18° 94° (E) 12:07:13 145.980
POLYITAN 1 30 Jul 12:02:32 12:06:47 77° 257° (WSW) 12:11:06 437.675
TIGRISAT 30 Jul 12:04:22 12:06:43 14° 269° (W) 12:09:05 435.000
M-CUBED/EXP-1 PRIME 30 Jul 12:10:43 12:14:54 32° 295° (WNW) 12:19:00 437.505
JAS-2 30 Jul 12:16:54 12:22:33 47° 72° (ENE) 12:27:42 435.910
Cosmos 2504 30 Jul 12:18:30 12:26:40 40° 285° (WNW) 12:34:48 435.465 / 435.565
DX 1 30 Jul 12:32:26 12:36:12 28° 97° (E) 12:39:57 434.975-435.025
AUBIESAT-1 30 Jul 12:34:03 12:37:39 23° 297° (WNW) 12:41:12 437.475
UKube-1 30 Jul 12:39:08 12:42:46 26° 96° (E) 12:46:22 .
NANOSAT C BR1 30 Jul 12:42:57 12:46:34 27° 264° (W) 12:50:14 145.865
BUGSAT 1 30 Jul 12:43:51 12:47:55 68° 259° (W) 12:52:03 437.445
AISAT 30 Jul 12:45:20 12:49:46 60° 101° (E) 12:54:11 437.250
DUCHIFAT 1 30 Jul 12:45:23 12:49:00 27° 264° (W) 12:52:39 145.980
50 SAT 30 Jul 12:56:27 13:00:03 89° 283° (WNW) 13:03:38 437.505
SPROUT 30 Jul 13:04:48 13:08:56 43° 99° (E) 13:13:01 437.525
QB50P1 30 Jul 13:09:15 13:11:27 14° 268° (W) 13:13:40 145.935-145.965
POPSAT HIP 1 30 Jul 13:16:50 13:18:21 12° 269° (W) 13:19:51 437.405
CUBEBUG 1 30 Jul 13:27:59 13:32:05 39° 288° (WNW) 13:36:11 437.445
AIST 1 30 Jul 13:29:25 13:33:40 89° 74° (ENE) 13:37:57
Oscar 19 30 Jul 13:30:30 13:35:30 58° 73° (ENE) 13:40:32 437.125/150
AO-85 30 Jul 13:34:28 13:39:52 77° 301° (WNW) 13:45:03 145.980
ESTCUBE 1 30 Jul 13:36:31 13:40:00 22° 292° (WNW) 13:43:28 437.505/2401.250
VELOX 1 30 Jul 13:36:40 13:40:46 37° 289° (WNW) 13:44:52 145.980
Gurwin Techsat 1B 30 Jul 13:41:44 13:46:26 33° 69° (ENE) 13:51:10 435.225
AO-7 30 Jul 13:46:42 13:50:24 14° 48° (NE) 13:54:05 29.400- 29.500
TISAT 1 30 Jul 13:46:49 13:50:30 28° 97° (E) 13:54:10 437.305
RS-15 30 Jul 13:52:41 14:03:06 30° 35° (NE) 14:13:27 29.354- 29.394
JAS-2 30 Jul 14:03:25 14:07:46 21° 265° (W) 14:11:50 435.910
DX 1 30 Jul 14:08:45 14:12:14 24° 292° (WNW) 14:15:44 434.975-435.025
UKube-1 30 Jul 14:15:10 14:18:42 25° 291° (WNW) 14:22:13 .
CUSAT 1 30 Jul 14:16:54 14:19:53 29° 80° (E) 14:23:33 437.405
BEESAT 30 Jul 14:20:33 14:22:19 12° 91° (E) 14:24:04 436.000
AISAT 30 Jul 14:23:53 14:25:42 12° 296° (WNW) 14:27:32 437.250
SPROUT 30 Jul 14:41:57 14:44:29 15° 294° (WNW) 14:47:01 437.525
ITUPSAT 1 30 Jul 14:44:34 14:48:15 22° 95° (E) 14:51:55 437.325
Cosmos 2499 30 Jul 15:06:16 15:14:18 40° 87° (E) 15:22:07 435.465 / 435.565
GONETS M04 30 Jul 15:06:41 15:15:00 54° 90° (E) 15:23:23
Oscar 19 30 Jul 15:12:24 15:15:10 15° 268° (W) 15:17:58 437.125/150
ITAMSAT 1 30 Jul 15:12:55 15:18:08 81° 75° (ENE) 15:23:23 435.822/435.867
DANDE 30 Jul 15:15:46 15:18:22 38° 80° (E) 15:21:25 436.750
AO-85 30 Jul 15:18:43 15:21:06 13° 318° (NW) 15:23:26 145.980
Gurwin Techsat 1B 30 Jul 15:21:51 15:26:21 28° 264° (W) 15:30:54 435.225
PHONESAT 2.4 30 Jul 15:22:00 15:24:45 31° 152° (SSE) 15:27:31 2401.200-2431.200
TISAT 1 30 Jul 15:22:42 15:25:59 22° 292° (WNW) 15:29:16 437.305
AO-7 30 Jul 15:33:20 15:41:34 66° 68° (ENE) 15:49:50 29.400- 29.500
SWISSCUBE 30 Jul 15:34:47 15:39:33 87° 98° (E) 15:44:18 437.505
BEESAT 30 Jul 15:55:46 16:00:29 63° 286° (WNW) 16:05:10 436.000
CUSAT 1 30 Jul 16:00:10 16:01:47 13° 265° (W) 16:03:32 437.405
MOZHAYETS 4 30 Jul 16:03:20 16:06:33 19° 93° (E) 16:09:46
RS-15 30 Jul 16:05:07 16:17:35 87° 61° (ENE) 16:29:46 29.354- 29.394
ITUPSAT 1 30 Jul 16:21:51 16:26:08 34° 290° (WNW) 16:30:24 437.325
SO-50 30 Jul 16:33:18 16:37:54 62° 57° (ENE) 16:42:19 436.795
KKS-1 30 Jul 16:36:44 16:40:57 39° 99° (E) 16:45:08 437.445
BEESAT 3 30 Jul 16:42:51 16:43:08 10° 107° (ESE) 16:43:25 437.485
HORYU 2 30 Jul 16:56:33 17:00:50 47° 73° (ENE) 17:05:10 437.375
ITAMSAT 1 30 Jul 16:57:13 16:58:09 10° 270° (W) 16:59:05 435.822/435.867
PHONESAT 2.4 30 Jul 16:58:04 17:01:08 65° 349° (NNW) 17:04:12 2401.200-2431.200
Cosmos 2499 30 Jul 16:58:57 17:07:16 43° 284° (WNW) 17:15:23 435.465 / 435.565
GONETS M04 30 Jul 17:04:43 17:12:08 31° 289° (WNW) 17:19:38
STARS 30 Jul 17:04:45 17:08:55 38° 99° (E) 17:13:03 437.465
CUTE-I 30 Jul 17:22:01 17:25:14 16° 63° (ENE) 17:28:27 437.470
BRITE-PL 30 Jul 17:24:06 17:27:06 20° 68° (ENE) 17:30:09 437.365/2234.400
NOAA 15 30 Jul 17:28:10 17:32:18 24° 66° (ENE) 17:36:26 137.62
AO-7 30 Jul 17:28:13 17:34:48 25° 265° (W) 17:41:27 29.400- 29.500
CUBESAT XI-V 30 Jul 17:33:01 17:36:30 21° 94° (E) 17:39:58 437.345
MOZHAYETS 4 30 Jul 17:39:38 17:43:49 37° 289° (WNW) 17:47:59
PCSat 30 Jul 18:00:50 18:05:13 26° 107° (ESE) 18:09:37 145.827
GOMX 1 30 Jul 18:05:33 18:08:59 25° 69° (ENE) 18:12:33 467.674
LilacSat-2 30 Jul 18:07:40 18:11:08 32° 72° (ENE) 18:14:38 437.200
KKS-1 30 Jul 18:14:08 18:17:12 18° 294° (WNW) 18:20:15 437.445
SO-50 30 Jul 18:15:57 18:17:45 12° 253° (WSW) 18:19:34 436.795
BEESAT 3 30 Jul 18:16:25 18:20:16 57° 303° (WNW) 18:24:09 437.485
RS-15 30 Jul 18:19:42 18:28:28 24° 260° (W) 18:37:10 29.354- 29.394
NOAA 18 30 Jul 18:28:52 18:34:21 69° 73° (ENE) 18:39:53 137.9125
BEESAT 2 30 Jul 18:30:26 18:34:23 79° 301° (WNW) 18:38:22 435.950
PHONESAT 2.4 30 Jul 18:34:50 18:37:50 48° 4° (N) 18:40:50 2401.200-2431.200
HORYU 2 30 Jul 18:35:09 18:37:37 15° 267° (W) 18:40:07 437.375
Cubesat XI-IV 30 Jul 18:36:57 18:42:19 80° 75° (ENE) 18:47:43 437.490
STARS 30 Jul 18:41:56 18:44:57 18° 294° (WNW) 18:47:58 437.465
HO-68 30 Jul 18:43:52 18:48:29 19° 57° (ENE) 18:53:08 435.675
CUTE-I 30 Jul 18:59:24 19:04:43 63° 258° (WSW) 19:10:03 437.470
CINEMA 3 30 Jul 18:59:53 19:02:08 14° 63° (ENE) 19:04:25 145.822/145.860
BRITE-PL 30 Jul 19:01:52 19:05:26 28° 264° (W) 19:09:04 437.365/2234.400
NOAA 15 30 Jul 19:06:58 19:11:50 39° 262° (W) 19:16:43 137.62
CANX-2 30 Jul 19:09:40 19:11:49 14° 66° (ENE) 19:13:58 2200.000
CUBESAT XI-V 30 Jul 19:09:45 19:13:55 34° 289° (WNW) 19:18:06 437.345
DOVE 4 30 Jul 19:15:04 19:19:20 67° 76° (ENE) 19:23:54 437.250
YUBILEINY 30 Jul 19:16:04 19:20:59 16° 63° (ENE) 19:25:51 435.215
CUTE 1.7 + AOD 2 30 Jul 19:21:43 19:24:22 16° 67° (ENE) 19:27:01 437.475
AIST 2 30 Jul 19:28:32 19:31:12 17° 110° (ESE) 19:33:53 435.215
ISS 30 Jul 19:39:39 19:42:40 36° 134° (SE) 19:45:42 145.825
CUBEBUG 2 30 Jul 19:41:13 19:42:17 11° 62° (ENE) 19:43:22 437.445
LilacSat-2 30 Jul 19:43:09 19:45:30 15° 267° (W) 19:47:51 437.200
PCSat 30 Jul 19:43:17 19:48:22 40° 304° (WNW) 19:53:28 145.827
GOMX 1 30 Jul 19:43:37 19:47:01 24° 266° (W) 19:50:33 467.674
SEEDS 30 Jul 19:52:30 19:55:57 25° 70° (ENE) 19:59:25 437.485
COMPASS 1 30 Jul 19:57:10 20:00:10 19° 68° (ENE) 20:03:10 437.405
PHONESAT 2.4 30 Jul 20:11:21 20:14:25 68° 199° (SSW) 20:17:28 2401.200-2431.200
NOAA 18 30 Jul 20:12:39 20:15:28 14° 268° (W) 20:18:18 137.9125
O/OREOS (USA 219) 30 Jul 20:13:28 20:17:54 74° 108° (ESE) 20:22:22 437.305
AAUSAT CUBESAT 2 30 Jul 20:20:46 20:24:18 28° 71° (ENE) 20:27:52 437.432
Cubesat XI-IV 30 Jul 20:21:28 20:22:56 11° 270° (W) 20:24:25 437.490
Cosmos 2504 30 Jul 20:24:04 20:26:26 11° 60° (ENE) 20:28:45 435.465 / 435.565
HO-68 30 Jul 20:28:08 20:35:20 82° 254° (WSW) 20:42:35 435.675
FUNcube-1 30 Jul 20:32:58 20:35:42 16° 66° (ENE) 20:38:28 145.935
CINEMA 3 30 Jul 20:34:09 20:38:38 60° 260° (W) 20:43:22 145.822/145.860
ZACube-1 30 Jul 20:35:48 20:38:54 18° 67° (ENE) 20:42:02 437.345
Cosmos 2491 30 Jul 20:37:30 20:44:34 29° 83° (E) 20:51:36 435.465 / 435.565
STRAND 1 30 Jul 20:38:24 20:43:32 81° 284° (WNW) 20:48:37 437.568
CANX-2 30 Jul 20:43:07 20:47:15 48° 261° (W) 20:51:23 2200.000
UWE-3 30 Jul 20:43:20 20:47:27 33° 71° (ENE) 20:51:39 435.000/436.395/437.385
CUTE 1.7 + AOD 2 30 Jul 20:55:53 20:59:52 39° 262° (W) 21:03:53 437.475
AIST 2 30 Jul 21:05:31 21:09:22 38° 306° (NW) 21:13:15 435.215
Oscar 11 30 Jul 21:08:18 21:12:20 39° 73° (ENE) 21:16:24 145.826/435.025
YUBILEINY 30 Jul 21:10:17 21:19:10 84° 83° (E) 21:27:58 435.215
CUBEBUG 2 30 Jul 21:13:34 21:18:10 77° 258° (WSW) 21:22:56 437.445
ISS 30 Jul 21:16:28 21:19:10 23° 330° (NNW) 21:21:52 145.825
M-CUBED/EXP-1 PRIME 30 Jul 21:21:40 21:24:37 21° 62° (ENE) 21:27:45 437.505
SEEDS 30 Jul 21:28:08 21:31:34 24° 265° (W) 21:35:00 437.485
COMPASS 1 30 Jul 21:31:49 21:35:31 30° 263° (W) 21:39:13 437.405
AUBIESAT-1 30 Jul 21:43:33 21:46:59 30° 65° (ENE) 21:50:40 437.475
DELFI C3 30 Jul 21:43:42 21:47:25 40° 73° (ENE) 21:51:08 145.870
PHONESAT 2.4 30 Jul 21:48:58 21:50:31 13° 215° (SW) 21:52:05 2401.200-2431.200
PRISM 30 Jul 21:50:44 21:54:51 82° 102° (ESE) 21:58:58 437.425
AAUSAT CUBESAT 2 30 Jul 21:56:40 21:59:46 20° 265° (W) 22:02:54 437.432
O/OREOS (USA 219) 30 Jul 21:56:42 21:57:50 11° 306° (NW) 21:58:58 437.305
FUNcube-1 30 Jul 22:07:08 22:11:31 47° 261° (W) 22:15:57 145.935
AO-85 30 Jul 22:08:51 22:13:07 51° 56° (NE) 22:17:01 145.980
ZACube-1 30 Jul 22:10:33 22:14:50 41° 262° (W) 22:19:11 437.345
Cosmos 2504 30 Jul 22:13:28 22:21:29 73° 81° (E) 22:28:53 435.465 / 435.565
UWE-3 30 Jul 22:20:23 22:23:56 22° 266° (W) 22:27:32 435.000/436.395/437.385
TIGRISAT 30 Jul 22:20:43 22:22:47 13° 91° (E) 22:24:49 435.000
HO-68 30 Jul 22:21:26 22:23:59 12° 271° (W) 22:26:31 435.675
Cosmos 2491 30 Jul 22:32:19 22:40:48 56° 281° (WNW) 22:49:22 435.465 / 435.565
UNISAT 6 30 Jul 22:37:17 22:40:48 22° 94° (E) 22:44:15 437.425
Oscar 11 30 Jul 22:45:56 22:48:36 16° 267° (W) 22:51:18 145.826/435.025
HUMSAT D 30 Jul 22:48:26 22:52:44 71° 259° (W) 22:57:02 437.325/437.525
CUBEBUG 1 30 Jul 22:48:39 22:50:05 12° 64° (ENE) 22:51:32 437.445
M-CUBED/EXP-1 PRIME 30 Jul 22:55:37 22:58:56 28° 260° (W) 23:02:31 437.505
ESTCUBE 1 30 Jul 22:57:27 23:01:00 23° 68° (ENE) 23:04:32 437.505/2401.250
VELOX 1 30 Jul 22:57:52 22:59:56 13° 64° (ENE) 23:02:00 145.980
YUBILEINY 30 Jul 23:09:24 23:14:45 18° 282° (WNW) 23:20:06 435.215
ANTELSAT 30 Jul 23:14:50 23:19:22 57° 100° (E) 23:23:44 437.575/2403.000
AUBIESAT-1 30 Jul 23:18:39 23:21:30 19° 262° (W) 23:24:30 437.475
DELFI C3 30 Jul 23:20:34 23:22:26 13° 268° (W) 23:24:17 145.870
DX 1 30 Jul 23:26:42 23:29:49 20° 67° (ENE) 23:32:58 434.975-435.025
50 SAT 30 Jul 23:32:17 23:35:26 28° 72° (ENE) 23:38:35 437.505
UKube-1 30 Jul 23:32:32 23:35:27 18° 66° (ENE) 23:38:22 .
AIST 1 30 Jul 23:39:08 23:42:11 18° 74° (ENE) 23:45:13
AISAT 30 Jul 23:40:49 23:44:55 41° 72° (ENE) 23:49:04 437.250
QB50P2 30 Jul 23:47:36 23:50:42 19° 94° (E) 23:53:46 145.880/145.840
POLYITAN 1 30 Jul 23:50:12 23:53:21 20° 94° (E) 23:56:27 437.675
AO-85 30 Jul 23:51:21 23:52:55 12° 254° (WSW) 23:54:28 145.980
TIGRISAT 30 Jul 23:55:18 23:59:48 53° 286° (WNW) 00:04:09 435.000
SPROUT 30 Jul 23:56:45 00:00:19 26° 70° (ENE) 00:03:54 437.525
Cosmos 2504 31 Jul 00:08:49 00:13:47 18° 281° (W) 00:18:34 435.465 / 435.565
UNISAT 6 31 Jul 00:13:28 00:17:32 32° 290° (WNW) 00:21:31 437.425
CUBEBUG 1 31 Jul 00:21:34 00:25:49 60° 259° (W) 00:30:06 437.445
BUGSAT 1 31 Jul 00:28:12 00:31:21 20° 94° (E) 00:34:29 437.445
NANOSAT C BR1 31 Jul 00:28:28 00:32:38 51° 100° (E) 00:36:47 145.865
DUCHIFAT 1 31 Jul 00:30:37 00:34:47 51° 100° (E) 00:38:54 145.980
VELOX 1 31 Jul 00:31:38 00:35:54 53° 260° (W) 00:40:13 145.980
ESTCUBE 1 31 Jul 00:33:43 00:37:38 29° 263° (W) 00:41:34 437.505/2401.250
TISAT 1 31 Jul 00:37:26 00:40:12 17° 67° (ENE) 00:42:58 437.305
ANTELSAT 31 Jul 00:53:19 00:55:31 13° 296° (WNW) 00:57:41 437.575/2403.000
QB50P1 31 Jul 00:53:22 00:57:40 74° 284° (WNW) 01:01:54 145.935-145.965
POPSAT HIP 1 31 Jul 01:00:17 01:04:32 63° 286° (WNW) 01:08:45 437.405
DX 1 31 Jul 01:01:52 01:05:46 33° 262° (W) 01:09:42 434.975-435.025
50 SAT 31 Jul 01:06:51 01:09:05 15° 266° (W) 01:11:19 437.505
UKube-1 31 Jul 01:07:14 01:11:11 36° 262° (W) 01:15:11 .
JAS-2 31 Jul 01:11:22 01:16:39 47° 101° (E) 01:22:28 435.910
AIST 1 31 Jul 01:15:56 01:19:50 33° 269° (W) 01:23:45
AISAT 31 Jul 01:18:54 01:21:33 16° 267° (W) 01:24:14 437.250
GONETS M04 31 Jul 01:19:52 01:26:39 24° 68° (ENE) 01:33:25
QB50P2 31 Jul 01:22:43 01:26:32 32° 289° (WNW) 01:30:19 145.880/145.840
POLYITAN 1 31 Jul 01:25:22 01:29:10 31° 289° (WNW) 01:32:56 437.675
BEESAT 31 Jul 01:25:35 01:27:34 13° 63° (ENE) 01:29:33 436.000
SPROUT 31 Jul 01:32:45 01:36:11 24° 265° (W) 01:39:40 437.525
Oscar 19 31 Jul 01:44:29 01:48:38 24° 95° (E) 01:52:46 437.125/150
ITUPSAT 1 31 Jul 01:49:43 01:53:21 22° 67° (ENE) 01:57:01 437.325
JUGNU 31 Jul 01:53:19 01:56:04 13° 178° (S) 01:58:50 437.505
Gurwin Techsat 1B 31 Jul 02:00:58 02:03:55 15° 92° (E) 02:06:51 435.225
BUGSAT 1 31 Jul 02:02:59 02:06:44 31° 289° (WNW) 02:10:28 437.445
NANOSAT C BR1 31 Jul 02:05:57 02:07:53 13° 295° (WNW) 02:09:49 145.865
DUCHIFAT 1 31 Jul 02:08:02 02:10:00 13° 295° (WNW) 02:11:58 145.980
ISS 31 Jul 02:08:55 02:11:42 25° 30° (NNE) 02:14:29 145.825
TISAT 1 31 Jul 02:11:40 02:15:32 36° 262° (W) 02:19:27 437.305
BEESAT 3 31 Jul 02:35:18 02:39:04 41° 55° (NE) 02:42:50 437.485
SWISSCUBE 31 Jul 02:39:05 02:43:52 81° 77° (ENE) 02:48:40 437.505
BEESAT 2 31 Jul 02:50:19 02:53:57 32° 53° (NE) 02:57:34 435.950
PCSat 31 Jul 02:50:35 02:53:59 17° 46° (NE) 02:57:23 145.827
Cosmos 2499 31 Jul 02:52:47 03:00:25 64° 80° (E) 03:07:30 435.465 / 435.565
JAS-2 31 Jul 02:57:28 03:01:30 21° 293° (WNW) 03:05:46 435.910
BEESAT 31 Jul 03:00:00 03:04:45 68° 258° (WSW) 03:09:31 436.000
MOZHAYETS 4 31 Jul 03:04:04 03:06:48 16° 66° (ENE) 03:09:33
GONETS M04 31 Jul 03:15:27 03:24:11 70° 267° (W) 03:32:57
CUSAT 1 31 Jul 03:19:05 03:22:43 38° 98° (E) 03:25:39 437.405
Oscar 19 31 Jul 03:23:16 03:28:00 37° 290° (WNW) 03:32:44 437.125/150
ITUPSAT 1 31 Jul 03:26:32 03:30:56 36° 262° (W) 03:35:23 437.325
ITAMSAT 1 31 Jul 03:28:04 03:32:42 32° 97° (E) 03:37:18 435.822/435.867
KKS-1 31 Jul 03:33:07 03:36:55 29° 69° (ENE) 03:40:45 437.445
AO-7 31 Jul 03:38:20 03:44:35 23° 94° (E) 03:50:45 29.400- 29.500
Gurwin Techsat 1B 31 Jul 03:38:59 03:44:14 61° 287° (WNW) 03:49:27 435.225
JUGNU 31 Jul 03:42:27 03:44:13 11° 189° (S) 03:45:59 437.505
ISS 31 Jul 03:45:12 03:48:09 32° 226° (SW) 03:51:06 145.825
STARS 31 Jul 03:59:44 04:03:27 27° 69° (ENE) 04:07:11 437.465
BEESAT 3 31 Jul 04:14:11 04:16:23 14° 251° (WSW) 04:18:33 437.485
SRMSAT 31 Jul 04:18:30 04:21:11 13° 179° (S) 04:23:53 437.500
DANDE 31 Jul 04:21:46 04:27:08 83° 99° (E) 04:31:06 436.750
RS-15 31 Jul 04:21:59 04:26:15 13° 94° (E) 04:30:33 29.354- 29.394
BEESAT 2 31 Jul 04:28:40 04:31:33 19° 249° (WSW) 04:34:26 435.950
PCSat 31 Jul 04:32:33 04:37:59 76° 245° (WSW) 04:43:22 145.827
CUBESAT XI-V 31 Jul 04:35:11 04:38:09 17° 66° (ENE) 04:41:07 437.345
MOZHAYETS 4 31 Jul 04:39:04 04:43:33 49° 261° (W) 04:48:02
Cosmos 2499 31 Jul 04:47:30 04:52:38 20° 279° (W) 04:57:34 435.465 / 435.565
O/OREOS (USA 219) 31 Jul 04:48:54 04:49:46 10° 53° (NE) 04:50:39 437.305
ITAMSAT 1 31 Jul 05:07:41 05:12:01 28° 293° (WNW) 05:16:21 435.822/435.867
KKS-1 31 Jul 05:09:54 05:13:26 23° 264° (W) 05:17:01 437.445
GONETS M04 31 Jul 05:17:41 05:19:15 11° 286° (WNW) 05:20:50
AIST 2 31 Jul 05:28:08 05:32:19 74° 59° (ENE) 05:36:29 435.215
AO-7 31 Jul 05:29:38 05:37:56 71° 291° (WNW) 05:46:10 29.400- 29.500
STARS 31 Jul 05:36:10 05:39:44 24° 264° (W) 05:43:20 437.465
SRMSAT 31 Jul 06:08:07 06:09:28 11° 190° (S) 06:10:51 437.500
GOMX 1 31 Jul 06:10:11 06:11:43 11° 90° (E) 06:13:16 467.674
CUBESAT XI-V 31 Jul 06:10:47 06:15:10 43° 261° (W) 06:19:34 437.345
STRAND 1 31 Jul 06:16:18 06:18:51 14° 62° (ENE) 06:21:24 437.568
RS-15 31 Jul 06:24:57 06:36:11 70° 114° (ESE) 06:48:05 29.354- 29.394
O/OREOS (USA 219) 31 Jul 06:25:11 06:29:45 80° 251° (WSW) 06:34:18 437.305
HORYU 2 31 Jul 06:25:32 06:29:59 66° 286° (WNW) 06:34:22 437.375
SO-50 31 Jul 06:45:36 06:49:56 32° 113° (ESE) 06:54:14 436.795
Cosmos 2491 31 Jul 06:51:58 06:54:45 12° 60° (ENE) 06:57:32 435.465 / 435.565
NOAA 18 31 Jul 06:53:14 06:58:12 33° 98° (E) 07:03:08 137.9125
Cubesat XI-IV 31 Jul 06:56:25 07:01:21 37° 98° (E) 07:06:14 437.490
BRITE-PL 31 Jul 07:06:09 07:11:12 90° 142° (SE) 07:16:37 437.365/2234.400
DOVE 4 31 Jul 07:15:41 07:19:59 25° 94° (E) 07:24:17 437.250
LilacSat-2 31 Jul 07:16:36 07:20:27 64° 101° (E) 07:24:13 437.200
CUTE-I 31 Jul 07:18:20 07:23:38 61° 101° (ESE) 07:28:52 437.470
